Mountain Home, Arkansas, United States (72653)
Lat: 36.34N, Lon: 92.39W
Wx Zone: ARZ005
Local Info
Past Weather Observations for Monday, July 27, 2015

NOTE: This archive is for the closest National Weather Service station to Mountain Home. Information may differ from the station used for current weather conditions.

Click here for Long-term Archive

Time Weather Temperature Dewpoint Humidity Pressure Winds Precip Visibility
23:53
Clear
75°F / 24°C 73°F / 23°C 94% 29.98 in
(1015 mb)
SSE 4.6 mph
(SSE 7 kph)
- 8SM
22:53
Clear
77°F / 25°C 73°F / 23°C 89% 29.98 in
(1015 mb)
SE 3.5 mph
(SE 6 kph)
- 9SM
21:53
Clear
79°F / 26°C 73°F / 23°C 84% 29.98 in
(1015 mb)
E 3.5 mph
(E 6 kph)
- 9SM
20:53
Clear
79°F / 26°C 73°F / 23°C 84% 29.98 in
(1015 mb)
Calm - 9SM
19:53
Clear
81°F / 27°C 72°F / 22°C 74% 29.95 in
(1014 mb)
ESE 3.5 mph
(ESE 6 kph)
- 10SM
18:53
Clear
82°F / 28°C 72°F / 22°C 70% 29.95 in
(1014 mb)
SE 4.6 mph
(SE 7 kph)
- 9SM
17:53
Clear
84°F / 29°C 72°F / 22°C 66% 29.92 in
(1013 mb)
SSE 4.6 mph
(SSE 7 kph)
- 10SM
16:53
Clear
82°F / 28°C 73°F / 23°C 74% 29.92 in
(1013 mb)
S 4.6 mph
(S 7 kph)
- 9SM
15:53
Clear
82°F / 28°C 72°F / 22°C 70% 29.95 in
(1014 mb)
S 5.8 mph
(S 9 kph)
- 9SM
14:53
Clear
82°F / 28°C 73°F / 23°C 74% 29.95 in
(1014 mb)
S 4.6 mph
(S 7 kph)
- 9SM
14:09
Partly Cloudy
82°F / 28°C 70°F / 21°C 66% 29.98 in
(1015 mb)
SW 4.6 mph
(SW 7 kph)
- 9SM
13:53
Partly Cloudy
Thunder Storms
82°F / 28°C 73°F / 23°C 74% 29.98 in
(1015 mb)
SW 9.2 mph
(SW 15 kph)
- 8SM
13:13
Partly Cloudy
Thunder Storms
91°F / 33°C 75°F / 24°C 59% 29.95 in
(1014 mb)
SSE 3.5 mph
(SSE 6 kph)
- 8SM
12:53
Clear
91°F / 33°C 75°F / 24°C 59% 29.95 in
(1014 mb)
Calm - 8SM
11:53
Partly Cloudy
91°F / 33°C 77°F / 25°C 63% 29.98 in
(1015 mb)
Variable 3.5 mph
(Variable 6 kph)
- 7SM
10:53
Clear
90°F / 32°C 77°F / 25°C 67% 29.98 in
(1015 mb)
Variable 3.5 mph
(Variable 6 kph)
- 7SM
09:53
Clear
86°F / 30°C 75°F / 24°C 70% 30.01 in
(1016 mb)
SSW 4.6 mph
(SSW 7 kph)
- 7SM
08:53
Clear
84°F / 29°C 75°F / 24°C 74% 30.01 in
(1016 mb)
Variable 3.5 mph
(Variable 6 kph)
- 7SM
07:53
Mostly Cloudy
82°F / 28°C 73°F / 23°C 74% 30.01 in
(1016 mb)
SSW 3.5 mph
(SSW 6 kph)
- 7SM
06:53
Partly Cloudy
Fog And Mist
79°F / 26°C 75°F / 24°C 89% 30.01 in
(1016 mb)
Calm 0.00 in
(0.00 mm)
6SM
05:53
Partly Cloudy
Fog And Mist
77°F / 25°C 73°F / 23°C 89% 29.98 in
(1015 mb)
Calm - 6SM
04:53
Clear
Fog And Mist
75°F / 24°C 73°F / 23°C 94% 29.95 in
(1014 mb)
Calm - 6SM
03:53
Clear
77°F / 25°C 73°F / 23°C 89% 29.95 in
(1014 mb)
Calm - 7SM
02:53
Clear
79°F / 26°C 75°F / 24°C 89% 29.95 in
(1014 mb)
SSE 3.5 mph
(SSE 6 kph)
- 8SM
01:53
Clear
79°F / 26°C 75°F / 24°C 89% 29.98 in
(1015 mb)
Calm - 8SM
00:53
Clear
79°F / 26°C 75°F / 24°C 89% 29.95 in
(1014 mb)
Calm - 7SM
Time Weather Temperature Dewpoint Humidity Pressure Winds Precip Visibility


Weather for websites

WeatherForYou.com, LLC is not responsible for any damages or problems caused by this service. Current weather conditions are obtained from the closest station including government and personal stations which may have varying degrees of accuracy. Weather forecasts are derived from the NOAA NDFD. Like all things, this site belongs to Jesus Christ... He just trusts us to maintain it. If you have any questions or comments email webmaster@weatherforyou.com

Copyright © 2015, WeatherForYou.com LLC. All rights reserved.